"Pseudo-MPEC" for P11lbp6

Created 2021 Sep 25 18:07:11 UT using Find_Orb

Click here for an explanation of pseudo-MPECs

 
 Astrometry: 
     P11lbp6  C2021 09 15HwU]l*uAstrometryhY3qys[EO^[/h2D,x8BQbAN0*ne4i-GXu9FF51
     P11lbp6  C2021 09 15JQ'4?[FgxVdP?_XOXwC*f*QBc,rVRvb3d[o0y6cVmO:K$rBV;LByF51
     P11lbp6  C2021 09 15X?bdkspg[]RRpi%LCr!7xY/t5$F2$X+@vv9F=N*oE\f;%EA#v:pUF51
     P11lbp6 |C2021 09 16$jE(j1,IpMyl@FcIP3n2yclD*Ic25gV4JGEVJo]Ia$oKMy^u278X807
     P11lbp6 |C2021 09 16[v'RVDdkfuZ6BYFlO*ojb?oiS*DVbZRC2.BPSbK3redacted;xmG807
     P11lbp6 |C2021 09 16x9v(cfD(\3iQ+4-GH9kZ!g0clickUO\B')i%w?b``,BB@BeqMSYO807
     P11lbp6 |C2021 09 25!rt[taF)j(%qeIvh8NExJeA66HiIwEBKZp2SbXMN'JjJbGxherea807
     P11lbp6 |C2021 09 25E#@9qC\@t[F22Be5+xb3%fWO)$(j$+KxxBA4bp%2kNTfor1=9/L4807
     P11lbp6 |C2021 09 25F*)bNf+ye]A`q]VgLy.!.?GNxtyX4(@4V-?/LVPfexplanationN807

Station data:
(807) Cerro Tololo Observatory, La Serena  (S30.169136 W70.805900)  Chile.
(F51) Pan-STARRS 1, Haleakala  (N20.707235 W156.255910)  US/Hawaii.
   Observers N. Primak, A. Schultz, S. Watters, J. Thiel, T. Goggia. Measurer
   PS1 Science Consortium. 1.8-m Ritchey-Chrétien + CCD.

Orbital elements:  P11lbp6
   Perihelion 2021 Jun 1.488751 +/- 4.98261 TT = 11:43:48 (JD 2459366.988751)
Epoch 2021 Sep 25.0 TT = JDT 2459482.5   Earth MOID: 0.5382   AutoNEOCP
M  27.22035944 +/- 0.2099970        (J2000 ecliptic)
n   0.23565115 +/- 0.00968296       Peri.  251.93411 +/- 3.4225009
a   2.59591020 +/- 0.0715906        Node    42.12998 +/- 2.3469533
e   0.4829831 +/- 0.00969078        Incl.   28.77558 +/- 2.8336707
P   4.18                   H 20.5   G  0.15   U  9.6  
q 1.34212923 +/- 0.0596719    Q 3.84969117 +/- 0.0817708
From 9 observations 2021 Sept. 15-25; mean residual 0".19
Residuals in arcseconds: 
210915 F51  .04+  .10-    210916 807  .13-  .01-    210925 807  .59+  .03+    
210915 F51  .04+  .04+    210916 807  .09+  .03-    210925 807  .31-  .32-    
210915 F51  .08-  .07+    210916 807  .04+  .03+    210925 807  .16+  .10+    

Ephemerides (geocentric):
Date (UTC) HH   RA              Dec         delta   r     elong  mag " sig PA
---- -- -- --  -------------   -----------  ------ ------ -----  --- ---- ---
2021 09 25 18  02 18 58.339   -21 49 24.47  .85938 1.7560 141.0 22.5 3.63 116
2021 09 25 19  02 18 53.347   -21 48 56.53  .85941 1.7563 141.1 22.5 3.60 117
2021 09 25 20  02 18 48.351   -21 48 28.54  .85945 1.7565 141.1 22.5 3.57 117
2021 09 25 21  02 18 43.353   -21 48 00.51  .85948 1.7567 141.1 22.5 3.54 118
2021 09 25 22  02 18 38.352   -21 47 32.45  .85952 1.7570 141.2 22.5 3.51 119
2021 09 25 23  02 18 33.348   -21 47 04.34  .85955 1.7572 141.2 22.5 3.47 119
2021 09 26 00  02 18 28.341   -21 46 36.20  .85958 1.7574 141.3 22.5 3.44 120
2021 09 26 01  02 18 23.331   -21 46 08.01  .85962 1.7577 141.3 22.5 3.41 121
2021 09 26 02  02 18 18.318   -21 45 39.79  .85965 1.7579 141.3 22.5 3.37 121
2021 09 26 03  02 18 13.303   -21 45 11.52  .85969 1.7582 141.4 22.5 3.34 122
2021 09 26 04  02 18 08.284   -21 44 43.22  .85973 1.7584 141.4 22.5 3.31 123
2021 09 26 05  02 18 03.263   -21 44 14.87  .85976 1.7586 141.5 22.5 3.27 124
2021 09 26 06  02 17 58.239   -21 43 46.49  .85980 1.7589 141.5 22.5 3.24 125
2021 09 26 07  02 17 53.212   -21 43 18.06  .85984 1.7591 141.5 22.5 3.20 126
2021 09 26 08  02 17 48.183   -21 42 49.60  .85987 1.7593 141.6 22.5 3.17 127
2021 09 26 09  02 17 43.151   -21 42 21.09  .85991 1.7596 141.6 22.5 3.13 128
2021 09 26 10  02 17 38.115   -21 41 52.55  .85995 1.7598 141.7 22.5 3.10 129
2021 09 26 11  02 17 33.078   -21 41 23.96  .85999 1.7600 141.7 22.5 3.07 130
2021 09 26 12  02 17 28.037   -21 40 55.33  .86003 1.7603 141.7 22.5 3.03 131
2021 09 26 13  02 17 22.994   -21 40 26.67  .86007 1.7605 141.8 22.5 3.00 132
2021 09 26 14  02 17 17.948   -21 39 57.96  .86011 1.7608 141.8 22.5 2.96 133
2021 09 26 15  02 17 12.899   -21 39 29.21  .86015 1.7610 141.9 22.5 2.93 134
2021 09 26 16  02 17 07.847   -21 39 00.43  .86019 1.7612 141.9 22.5 2.90 135
2021 09 26 17  02 17 02.793   -21 38 31.60  .86023 1.7615 141.9 22.5 2.87 137
2021 09 26 18  02 16 57.736   -21 38 02.73  .86027 1.7617 142.0 22.5 2.83 138
2021 09 26 19  02 16 52.677   -21 37 33.83  .86031 1.7619 142.0 22.5 2.80 140
2021 09 26 20  02 16 47.615   -21 37 04.88  .86035 1.7622 142.1 22.5 2.77 141
2021 09 26 21  02 16 42.550   -21 36 35.89  .86039 1.7624 142.1 22.5 2.75 142
2021 09 26 22  02 16 37.483   -21 36 06.86  .86044 1.7626 142.1 22.5 2.72 144
2021 09 26 23  02 16 32.413   -21 35 37.79  .86048 1.7629 142.2 22.5 2.69 146
2021 09 27 00  02 16 27.340   -21 35 08.68  .86052 1.7631 142.2 22.5 2.67 147
2021 09 27 01  02 16 22.265   -21 34 39.53  .86057 1.7634 142.2 22.5 2.65 149
2021 09 27 02  02 16 17.187   -21 34 10.34  .86061 1.7636 142.3 22.5 2.62 151
2021 09 27 03  02 16 12.107   -21 33 41.11  .86065 1.7638 142.3 22.5 2.61 153
2021 09 27 04  02 16 07.024   -21 33 11.84  .86070 1.7641 142.4 22.5 2.59 154
2021 09 27 05  02 16 01.938   -21 32 42.53  .86074 1.7643 142.4 22.5 2.57 156
2021 09 27 06  02 15 56.850   -21 32 13.18  .86079 1.7645 142.4 22.5 2.56 158
2021 09 27 07  02 15 51.760   -21 31 43.78  .86084 1.7648 142.5 22.5 2.55 160
2021 09 27 08  02 15 46.667   -21 31 14.35  .86088 1.7650 142.5 22.5 2.54 162
2021 09 27 09  02 15 41.571   -21 30 44.88  .86093 1.7652 142.6 22.5 2.54 164
2021 09 27 10  02 15 36.473   -21 30 15.36  .86098 1.7655 142.6 22.5 2.54 166
2021 09 27 11  02 15 31.372   -21 29 45.81  .86102 1.7657 142.6 22.5 2.54 169
2021 09 27 12  02 15 26.269   -21 29 16.21  .86107 1.7660 142.7 22.5 2.55 171
2021 09 27 13  02 15 21.164   -21 28 46.58  .86112 1.7662 142.7 22.5 2.56 173
2021 09 27 14  02 15 16.056   -21 28 16.90  .86117 1.7664 142.8 22.5 2.57 175
2021 09 27 15  02 15 10.946   -21 27 47.19  .86122 1.7667 142.8 22.5 2.58 177
2021 09 27 16  02 15 05.833   -21 27 17.43  .86126 1.7669 142.8 22.5 2.60   0
2021 09 27 17  02 15 00.718   -21 26 47.63  .86131 1.7671 142.9 22.5 2.63   2